Location: Linz
(48.3300°N, 14.3000°E)
Time: 09:55:40
(UTC+01:00)

N. Korean satellite - Pass Details

Date: 15 November 2017
Orbit: 460 x 514 km, 97.2° (Epoch: 21 November)

Event Time Altitude Azimuth Distance (km) Brightness Sun altitude
Rises 05:53:47 0° 28° (NNE) 2,595 10.5 -12.7°
Reaches altitude 10° 05:56:29 10° 51° (NE) 1,717 9.9 -12.3°
Maximum altitude 05:58:53 16° 91° (E) 1,365 10.0 -11.9°
Drops below altitude 10° 06:01:18 10° 132° (SE) 1,723 10.4 -11.5°
Sets 06:04:01 0° 154° (SSE) 2,609 10.9 -11.1°
